Overview Statistics Trail Chart Weather Telemetry Raw packets
 

This is the latest recevied weather packets stored in our database for station/object HI3LT-13. If no packets are shown the sender has not sent any weather packets the latest 10 day(s).

<< 42 43 44 45 46 47 48 >>
Time Temp. Humidity Pressure Rain* Wind** Luminosity Snow
1787973576 26.67° C 81% 1016 hPa 0 mm - - -
1787972976 26.67° C 83% 1016 hPa 0 mm - - -
1787972375 26.11° C 78% 1016 hPa 0 mm - - -
1787971775 26.11° C 78% 1016 hPa 0 mm - - -
1787971174 26.67° C 78% 1016 hPa 0 mm - - -
1787970573 26.67° C 78% 1016 hPa 0 mm - - -
1787969973 26.67° C 78% 1016 hPa 0 mm - - -
1787969372 28.33° C 76% 1016 hPa 0 mm - - -
1787968772 27.22° C 78% 1016 hPa 0 mm - - -
1787968171 27.22° C 78% 1016 hPa 0 mm - - -
1787967570 27.22° C 78% 1016 hPa 0 mm - - -
1787966970 27.78° C 76% 1015 hPa 0 mm - - -
1787966369 27.22° C 76% 1015 hPa 0 mm - - -
1787965768 27.22° C 76% 1015 hPa 0 mm - - -
1787965168 27.22° C 79% 1015 hPa 0 mm - - -
1787964567 27.78° C 79% 1015 hPa 0 mm - - -
1787963967 27.78° C 79% 1015 hPa 0 mm - - -
1787963366 28.33° C 73% 1014 hPa 0 mm - - -
1787962765 28.89° C 73% 1014 hPa 0 mm - - -
1787962165 24.44° C 70% 1014 hPa 0 mm - - -
1787961564 28.89° C 70% 1015 hPa 0 mm - - -
1787960963 28.89° C 70% 1015 hPa 0 mm - - -
1787960363 29.44° C 70% 1014 hPa 0 mm - - -
1787959762 30° C 65% 1013 hPa 0 mm - - -
1787959162 30° C 65% 1013 hPa 0 mm - - -

* Rain latest hour (hover to see other rain measurements)
** Current wind speed in m/s (hover to see current wind gust speed)